map of LBU home
Great Circle Mapper logo
LBU - Airport
Location
City:  Labuan, Sabah, Borneo, Malaysia
ICAO / IATA:WBKL / LBU

Details
Type:Airport (Aerodrome, Airfield)
Use:Public/Civil, Military, International (customs port of entry)
Latitude:518'02"N (5.300683)
Longitude:11515'01"E (115.250181)
Datum:WGS 1984
Elevation:101 ft (31 m)
Runways:1
Longest:7546 × 148 ft (2300 × 45 m), paved

Time
Time Zone:UTC+8
Local Time:

Weather
METAR:WBKL 241200Z 00000KT 9999 FEW010 BKN130 BKN280 27/25 Q1010 RETS
TAF:WBKL 240500Z 2406/2506 34005KT 9999 FEW013 FEW015CB SCT140 BKN280
TEMPO 2413/2416 4000 TSRA SCT010 FEW014CB SCT040 BKN140

Related Locations
Nearby:
Farthest:SWUY: 12390 mi / 19939 km
Coari [Urucu], AM, BR

Find:

   beyond  
but within

Other Information
Maps:
NOTAMs:
Links:
Sources:

  
flag of Malaysia   

Sectional Chart

Flight Planning
at skyvector.com

Satellite Image

Google Maps Satellite View

 

Copyright © 2004-2014 Karl L. Swartz. All rights reserved.
The Great Circle Mapper name and logo are trademarks of the Great Circle Mapper.
All other trademarks mentioned herein belong to their respective owners.
Please see credits for attibutions and further copyright information.

  Follow gcmap on Facebook Follow gcmap on Twitter

hCard Microformat

Geo Microformat